IBE04EA LEMD-LEVX

Flight info

Callsign IBE04EA
Flight time 0h 54m
Altitude 29000
Route ZMR N733 DESAT/N0434F300 DCT BARKO
Aircraft A320/M-SDE3FGHIRWY/LB1

Departure

Time 2026-05-07 16:40
Airport Adolfo Suárez Madrid–Barajas Airport (LEMD)

Arrival

Time 2026-05-07 17:34
Airport Vigo Airport (LEVX)
Time Latitude Longitude Altitude Speed Heading
2026-05-07 15:59 40.49271 -3.58982 1981 ft 0 kts 269°
2026-05-07 16:29 40.49271 -3.58981 1980 ft 1 kts 269°
2026-05-07 16:29 40.49272 -3.58950 1980 ft 4 kts 258°
2026-05-07 16:29 40.49281 -3.58918 1980 ft 4 kts 229°
2026-05-07 16:30 40.49299 -3.58904 1980 ft 1 kts 181°
2026-05-07 16:30 40.49304 -3.58903 1980 ft 0 kts 181°
2026-05-07 16:33 40.49303 -3.58903 1980 ft 1 kts 181°
2026-05-07 16:33 40.49233 -3.58904 1980 ft 15 kts 179°
2026-05-07 16:34 40.49128 -3.58904 1980 ft 15 kts 180°
2026-05-07 16:34 40.49020 -3.58903 1982 ft 16 kts 179°
2026-05-07 16:34 40.48908 -3.58902 1980 ft 16 kts 180°
2026-05-07 16:34 40.48796 -3.58901 1980 ft 14 kts 178°
2026-05-07 16:35 40.48761 -3.58816 1981 ft 12 kts 89°
2026-05-07 16:35 40.48761 -3.58668 1980 ft 17 kts 90°
2026-05-07 16:35 40.48762 -3.58505 1980 ft 18 kts 88°
2026-05-07 16:35 40.48762 -3.58343 1980 ft 16 kts 90°
2026-05-07 16:36 40.48762 -3.58241 1980 ft 11 kts 91°
2026-05-07 16:36 40.48763 -3.58180 1980 ft 4 kts 89°
2026-05-07 16:36 40.48763 -3.58160 1980 ft 1 kts 89°
2026-05-07 16:36 40.48763 -3.58158 1980 ft 0 kts 89°
2026-05-07 16:37 40.48763 -3.58130 1980 ft 10 kts 91°
2026-05-07 16:37 40.48763 -3.57976 1980 ft 21 kts 89°
2026-05-07 16:37 40.48764 -3.57789 1980 ft 20 kts 89°
2026-05-07 16:37 40.48762 -3.57615 1980 ft 14 kts 105°
2026-05-07 16:38 40.48674 -3.57578 1982 ft 13 kts 174°
2026-05-07 16:38 40.48621 -3.57569 1980 ft 4 kts 173°
2026-05-07 16:38 40.48563 -3.57560 1983 ft 15 kts 173°
2026-05-07 16:38 40.48468 -3.57556 1982 ft 13 kts 188°
2026-05-07 16:39 40.48386 -3.57497 1980 ft 21 kts 142°
2026-05-07 16:39 40.48104 -3.57209 1983 ft 85 kts 142°
2026-05-07 16:39 40.47476 -3.56571 1981 ft 141 kts 142°
2026-05-07 16:39 40.46575 -3.55657 2072 ft 178 kts 142°
2026-05-07 16:40 40.45647 -3.54583 2711 ft 178 kts 129°
2026-05-07 16:40 40.44836 -3.53351 3348 ft 181 kts 127°
2026-05-07 16:40 40.43974 -3.52017 3628 ft 202 kts 129°
2026-05-07 16:40 40.43001 -3.50529 3920 ft 226 kts 135°
2026-05-07 16:41 40.41823 -3.49147 4698 ft 227 kts 139°
2026-05-07 16:41 40.40646 -3.47759 5504 ft 230 kts 139°
2026-05-07 16:41 40.39448 -3.46331 6293 ft 235 kts 139°
2026-05-07 16:41 40.38226 -3.44873 7016 ft 239 kts 140°
2026-05-07 16:42 40.36984 -3.43389 7744 ft 244 kts 140°
2026-05-07 16:42 40.35693 -3.41930 8453 ft 250 kts 149°
2026-05-07 16:42 40.33994 -3.41275 8777 ft 267 kts 185°
2026-05-07 16:42 40.32235 -3.42082 9361 ft 275 kts 214°
2026-05-07 16:43 40.30681 -3.43538 10116 ft 280 kts 216°
2026-05-07 16:43 40.29059 -3.45077 10505 ft 299 kts 216°
2026-05-07 16:43 40.27309 -3.46728 10780 ft 319 kts 216°
2026-05-07 16:43 40.25739 -3.48823 11360 ft 328 kts 239°
2026-05-07 16:44 40.25084 -3.51681 12034 ft 335 kts 267°
2026-05-07 16:44 40.25535 -3.54690 12752 ft 344 kts 293°
2026-05-07 16:44 40.26863 -3.57323 13472 ft 350 kts 306°
2026-05-07 16:44 40.28203 -3.59984 14126 ft 351 kts 294°
2026-05-07 16:45 40.28998 -3.63006 14764 ft 351 kts 279°
2026-05-07 16:45 40.29403 -3.66171 15418 ft 354 kts 278°
2026-05-07 16:45 40.29808 -3.69367 16039 ft 357 kts 278°
2026-05-07 16:45 40.30226 -3.72585 16668 ft 360 kts 278°
2026-05-07 16:46 40.30651 -3.75829 17284 ft 363 kts 278°
2026-05-07 16:46 40.31077 -3.79105 17903 ft 366 kts 278°
2026-05-07 16:46 40.31505 -3.82415 18465 ft 370 kts 278°
2026-05-07 16:46 40.31927 -3.85706 19020 ft 372 kts 278°
2026-05-07 16:47 40.32354 -3.89054 19581 ft 374 kts 278°
2026-05-07 16:47 40.32783 -3.92433 20132 ft 377 kts 278°
2026-05-07 16:47 40.33216 -3.95839 20684 ft 380 kts 278°
2026-05-07 16:47 40.33650 -3.99260 21223 ft 382 kts 278°
2026-05-07 16:48 40.34085 -4.02711 21763 ft 385 kts 278°
2026-05-07 16:48 40.34524 -4.06204 22306 ft 388 kts 278°
2026-05-07 16:48 40.34963 -4.09703 22832 ft 391 kts 278°
2026-05-07 16:48 40.35405 -4.13235 23345 ft 393 kts 278°
2026-05-07 16:49 40.35848 -4.16786 23779 ft 396 kts 278°
2026-05-07 16:49 40.36389 -4.20329 24227 ft 397 kts 285°
2026-05-07 16:49 40.37391 -4.23700 24685 ft 398 kts 296°
2026-05-07 16:49 40.38861 -4.26782 25147 ft 400 kts 306°
2026-05-07 16:50 40.40748 -4.29474 25564 ft 403 kts 316°
2026-05-07 16:50 40.42818 -4.31905 25922 ft 406 kts 316°
2026-05-07 16:50 40.44924 -4.34368 26321 ft 407 kts 316°
2026-05-07 16:50 40.47045 -4.36850 26746 ft 408 kts 316°
2026-05-07 16:51 40.49190 -4.39362 27172 ft 408 kts 316°
2026-05-07 16:51 40.51281 -4.41813 27592 ft 408 kts 316°
2026-05-07 16:51 40.53400 -4.44300 28004 ft 408 kts 316°
2026-05-07 16:51 40.55519 -4.46787 28408 ft 409 kts 316°
2026-05-07 16:52 40.57642 -4.49282 28790 ft 409 kts 316°
2026-05-07 16:52 40.59757 -4.51773 28901 ft 404 kts 316°
2026-05-07 16:52 40.61810 -4.54192 28909 ft 391 kts 316°
2026-05-07 16:53 40.65811 -4.58930 28903 ft 381 kts 316°
2026-05-07 16:53 40.69705 -4.63555 28906 ft 375 kts 316°
2026-05-07 16:54 40.73575 -4.68141 28907 ft 374 kts 316°
2026-05-07 16:54 40.77445 -4.72724 28904 ft 374 kts 316°
2026-05-07 16:55 40.81309 -4.77309 28910 ft 373 kts 316°
2026-05-07 16:55 40.85172 -4.81907 28884 ft 375 kts 316°
2026-05-07 16:56 40.89036 -4.86517 28886 ft 376 kts 316°
2026-05-07 16:56 40.94844 -4.93466 28878 ft 377 kts 316°
2026-05-07 16:57 40.98727 -4.98116 28889 ft 376 kts 316°
2026-05-07 16:57 41.02609 -5.02768 28923 ft 375 kts 316°
2026-05-07 16:58 41.06459 -5.07385 28902 ft 375 kts 316°
2026-05-07 16:58 41.10316 -5.12037 28890 ft 375 kts 316°
2026-05-07 16:59 41.14179 -5.16703 28888 ft 375 kts 316°
2026-05-07 16:59 41.18043 -5.21364 28887 ft 376 kts 316°
2026-05-07 17:00 41.21909 -5.26030 28889 ft 375 kts 316°
2026-05-07 17:00 41.25747 -5.30688 28880 ft 376 kts 316°
2026-05-07 17:01 41.29620 -5.35388 28850 ft 377 kts 316°
2026-05-07 17:01 41.33492 -5.40101 28871 ft 377 kts 316°
2026-05-07 17:02 41.37361 -5.44816 28876 ft 377 kts 316°
2026-05-07 17:02 41.41227 -5.49534 28871 ft 377 kts 315°
2026-05-07 17:03 41.45094 -5.54263 28876 ft 378 kts 316°
2026-05-07 17:03 41.48977 -5.59001 28861 ft 378 kts 316°
2026-05-07 17:04 41.52844 -5.63769 28862 ft 378 kts 313°
2026-05-07 17:04 41.56124 -5.69185 28859 ft 378 kts 304°
2026-05-07 17:05 41.59012 -5.75047 28873 ft 377 kts 302°
2026-05-07 17:05 41.61883 -5.80877 28889 ft 374 kts 303°
2026-05-07 17:06 41.64833 -5.86610 28886 ft 374 kts 304°
2026-05-07 17:06 41.67809 -5.92288 28869 ft 374 kts 304°
2026-05-07 17:07 41.70801 -5.98016 28858 ft 375 kts 304°
2026-05-07 17:07 41.73785 -6.03758 28856 ft 375 kts 304°
2026-05-07 17:08 41.76740 -6.09473 28833 ft 375 kts 304°
2026-05-07 17:08 41.79696 -6.15207 28862 ft 373 kts 304°
2026-05-07 17:09 41.82642 -6.20920 28887 ft 372 kts 304°
2026-05-07 17:09 41.85582 -6.26622 28859 ft 372 kts 304°
2026-05-07 17:10 41.88516 -6.32333 28847 ft 372 kts 304°
2026-05-07 17:10 41.91450 -6.38058 28844 ft 372 kts 304°
2026-05-07 17:11 41.94363 -6.43758 28837 ft 372 kts 304°
2026-05-07 17:11 41.97297 -6.49502 28819 ft 373 kts 303°
2026-05-07 17:12 42.00227 -6.55248 28830 ft 373 kts 304°
2026-05-07 17:12 42.03158 -6.60998 28846 ft 373 kts 304°
2026-05-07 17:13 42.06084 -6.66763 28845 ft 373 kts 303°
2026-05-07 17:13 42.08508 -6.71554 28843 ft 372 kts 303°
2026-05-07 17:14 42.11427 -6.77326 28834 ft 372 kts 303°
2026-05-07 17:14 42.14816 -6.84033 28835 ft 372 kts 303°
2026-05-07 17:15 42.17257 -6.88877 28833 ft 373 kts 303°
2026-05-07 17:15 42.19965 -6.94838 28850 ft 374 kts 293°
2026-05-07 17:16 42.21488 -7.01716 28142 ft 388 kts 286°
2026-05-07 17:16 42.22179 -7.05239 27377 ft 389 kts 286°
2026-05-07 17:16 42.22869 -7.08769 26691 ft 388 kts 285°
2026-05-07 17:17 42.23550 -7.12280 26102 ft 385 kts 285°
2026-05-07 17:17 42.24222 -7.15752 25669 ft 379 kts 285°
2026-05-07 17:17 42.24886 -7.19174 25234 ft 374 kts 285°
2026-05-07 17:17 42.25542 -7.22553 24795 ft 370 kts 285°
2026-05-07 17:18 42.26192 -7.25895 24368 ft 367 kts 285°
2026-05-07 17:18 42.26835 -7.29211 23939 ft 363 kts 285°
2026-05-07 17:18 42.27472 -7.32501 23506 ft 361 kts 285°
2026-05-07 17:18 42.28097 -7.35743 23023 ft 359 kts 285°
2026-05-07 17:19 42.28723 -7.38989 22577 ft 355 kts 285°
2026-05-07 17:19 42.29342 -7.42200 22139 ft 352 kts 285°
2026-05-07 17:19 42.29951 -7.45384 21705 ft 348 kts 284°
2026-05-07 17:19 42.30553 -7.48549 21267 ft 346 kts 284°
2026-05-07 17:20 42.31150 -7.51681 20835 ft 343 kts 284°
2026-05-07 17:20 42.31747 -7.54804 20402 ft 341 kts 284°
2026-05-07 17:20 42.32339 -7.57902 19972 ft 340 kts 284°
2026-05-07 17:20 42.32929 -7.60991 19546 ft 339 kts 283°
2026-05-07 17:21 42.33515 -7.64070 19115 ft 338 kts 283°
2026-05-07 17:21 42.34099 -7.67151 18692 ft 338 kts 283°
2026-05-07 17:21 42.34680 -7.70231 18266 ft 338 kts 283°
2026-05-07 17:21 42.35260 -7.73307 17806 ft 337 kts 282°
2026-05-07 17:22 42.35837 -7.76373 17379 ft 336 kts 282°
2026-05-07 17:22 42.36411 -7.79426 16960 ft 334 kts 282°
2026-05-07 17:22 42.36982 -7.82472 16501 ft 334 kts 282°
2026-05-07 17:22 42.37553 -7.85510 16028 ft 334 kts 282°
2026-05-07 17:23 42.38125 -7.88555 15599 ft 334 kts 282°
2026-05-07 17:23 42.38696 -7.91607 15149 ft 335 kts 282°
2026-05-07 17:23 42.39263 -7.94637 14702 ft 335 kts 282°
2026-05-07 17:23 42.39834 -7.97694 14247 ft 336 kts 282°
2026-05-07 17:24 42.40404 -8.00755 13798 ft 336 kts 282°
2026-05-07 17:24 42.40975 -8.03826 13297 ft 336 kts 282°
2026-05-07 17:24 42.41546 -8.06891 12830 ft 335 kts 282°
2026-05-07 17:24 42.42113 -8.09947 12366 ft 334 kts 282°
2026-05-07 17:25 42.42675 -8.12990 11898 ft 332 kts 282°
2026-05-07 17:25 42.43234 -8.16017 11421 ft 331 kts 282°
2026-05-07 17:25 42.43791 -8.19035 10961 ft 329 kts 282°
2026-05-07 17:25 42.44341 -8.22011 10496 ft 328 kts 282°
2026-05-07 17:26 42.44891 -8.25003 10036 ft 327 kts 281°
2026-05-07 17:26 42.45427 -8.27931 9892 ft 312 kts 281°
2026-05-07 17:26 42.45934 -8.30688 9603 ft 294 kts 281°
2026-05-07 17:26 42.46421 -8.33335 9027 ft 287 kts 281°
2026-05-07 17:27 42.46898 -8.35941 8383 ft 284 kts 281°
2026-05-07 17:27 42.47367 -8.38521 7769 ft 280 kts 281°
2026-05-07 17:27 42.47827 -8.41067 7158 ft 276 kts 281°
2026-05-07 17:27 42.48280 -8.43574 6562 ft 272 kts 281°
2026-05-07 17:28 42.48728 -8.46050 5981 ft 268 kts 281°
2026-05-07 17:28 42.49167 -8.48466 5465 ft 266 kts 282°
2026-05-07 17:28 42.49583 -8.50897 5050 ft 260 kts 275°
2026-05-07 17:28 42.49416 -8.53222 4992 ft 241 kts 247°
2026-05-07 17:29 42.48521 -8.55045 4940 ft 229 kts 221°
2026-05-07 17:29 42.47200 -8.56087 4974 ft 214 kts 198°
2026-05-07 17:29 42.45787 -8.56507 4986 ft 202 kts 193°
2026-05-07 17:29 42.44429 -8.56877 4839 ft 198 kts 192°
2026-05-07 17:30 42.43081 -8.57246 4611 ft 197 kts 193°
2026-05-07 17:30 42.41742 -8.57613 4351 ft 195 kts 192°
2026-05-07 17:30 42.40433 -8.57971 4120 ft 189 kts 194°
2026-05-07 17:30 42.39154 -8.58320 3840 ft 186 kts 194°
2026-05-07 17:31 42.37912 -8.58660 3595 ft 178 kts 194°
2026-05-07 17:31 42.36713 -8.58988 3358 ft 172 kts 194°
2026-05-07 17:31 42.35556 -8.59304 3133 ft 167 kts 193°
2026-05-07 17:31 42.34435 -8.59610 2915 ft 163 kts 194°
2026-05-07 17:32 42.33361 -8.59903 2698 ft 155 kts 193°
2026-05-07 17:32 42.32346 -8.60180 2505 ft 146 kts 194°
2026-05-07 17:32 42.31365 -8.60448 2313 ft 141 kts 195°
2026-05-07 17:32 42.30408 -8.60709 2108 ft 140 kts 195°
2026-05-07 17:33 42.29457 -8.60968 1908 ft 139 kts 194°
2026-05-07 17:33 42.28505 -8.61228 1730 ft 141 kts 194°
2026-05-07 17:33 42.27548 -8.61490 1534 ft 140 kts 195°
2026-05-07 17:33 42.26601 -8.61738 1367 ft 137 kts 195°
2026-05-07 17:34 42.25673 -8.61996 1154 ft 136 kts 194°
2026-05-07 17:34 42.24751 -8.62249 995 ft 134 kts 195°
2026-05-07 17:34 42.23847 -8.62497 842 ft 126 kts 194°
2026-05-07 17:34 42.23227 -8.62668 854 ft 48 kts 191°
2026-05-07 17:35 42.22980 -8.62733 856 ft 27 kts 193°
2026-05-07 17:35 42.22823 -8.62850 856 ft 25 kts 216°
2026-05-07 17:35 42.22731 -8.62946 843 ft 14 kts 223°
2026-05-07 17:35 42.22673 -8.63016 853 ft 11 kts 219°
2026-05-07 17:36 42.22606 -8.63053 859 ft 9 kts 192°
2026-05-07 17:36 42.22541 -8.63069 850 ft 10 kts 191°
2026-05-07 17:36 42.22497 -8.63095 850 ft 5 kts 253°
2026-05-07 17:36 42.22504 -8.63149 854 ft 4 kts 281°
2026-05-07 17:37 42.22510 -8.63186 860 ft 0 kts 281°